Location: Casco Volunteer Fire Department
(44.5576°N, 87.6146°W)
Time: 05:25:32
(UTC+00:00)

Cosmos 676 Rocket - Pass Details

Date: 22 January 2026
Orbit: 750 x 779 km, 74.0° (Epoch: 7 February)

Event Time Altitude Azimuth Distance (km) Brightness Sun altitude
Rises 12:14:35 0° 203° (SSW) 3,189 7.1 -11.5°
Reaches altitude 10° 12:16:56 10° 205° (SSW) 2,267 6.4 -11.1°
Maximum altitude 12:22:05 77° 292° (WNW) 776 3.9 -10.2°
Drops below altitude 10° 12:27:15 10° 18° (NNE) 2,281 6.5 -9.3°
Sets 12:29:38 0° 20° (NNE) 3,211 7.3 -8.9°
